Nur fliegen ist schöner ....

Willkommen beim Flugservice Bautzen GmbH

Wir sind eine nach europäischen Richtlinien zugelassene Flugschule und lizenziertes Luftfahrtunternehmen. Bei uns können sie nicht nur Rundflüge über die Oberlausitz oder Sachsen buchen, sondern in unserer Flugschule selber das Fliegen erlernen. Erfahrene Fluglehrer stehen Ihnen dabei zur Seite.

Wir bieten Ihnen außerdem spezielle Flüge zur Vermessung oder Fotoflüge für Luftbildaufnahmen an. In Zusammenarbeit mit dem Fallschirmsportclub Dresden und dem Cottbuser Fallschirmsportclub setzen wir am Flugplatz Bautzen und Neuhausen Fallschirmspringer ab.
Schauen Sie sich in Ruhe bei uns um und wenn Sie Fragen haben oder weitere Informationen benötigen, scheuen Sie sich nicht Kontakt mit uns aufzunehmen.

Gutscheine für Rundflüge und Tandemsprünge können Sie ganz leicht auch online in unserem Shop erwerben.

Terminkalender

Letzter Monat Mai 2022 Nächster Monat
Mo Di Mi Do Fr Sa So
week 17 1
week 18 2 3 4 5 6 7 8
week 19 9 10 11 12 13 14 15
week 20 16 17 18 19 20 21 22
week 21 23 24 25 26 27 28 29
week 22 30 31

Flugwetterinfo

[Quelle: ADDS]
METAR
EDDC 200150Z VRB01KT CAVOK 16/15 Q1021 =
EDDC 192300Z 2000/2024 25008KT 9999 BKN040 TEMPO 2012/2019 26015G25KT 4500 TSRA SCT014CB BKN020 PROB40 TEMPO 2019/2021 22015G25KT 4500 TSRA BKN020CB
TAF
EDDC 192300Z 2000/2024 25008KT 9999 BKN040 TEMPO 2012/2019 26015G25KT 4500 TSRA SCT014CB BKN020 PROB40 TEMPO 2019/2021 22015G25KT 4500 TSRA BKN020CB =
SR / SS: 03:04 / 18:52 UTC (EDAB Flugplatz Bautzen 2022-05-20)

Öffnungszeiten

des Flugplatzes Bautzen erfahren Sie hier:

flugplatz bautzen logo
Flugservice Bautzen GmbH, Kornmarkt 34, 02625 Bautzen  Telefon: +49 (3591) 211105, Telefax: +49 (3591) 274512, E-Mail:  flugservice(at)fsbautzen.de
Wir benutzen Cookies
Wir nutzen nur Cookies auf unserer Website, die essenziell für den Betrieb der Seite sind. Sie können selbst entscheiden, ob Sie die Cookies zulassen möchten. Bitte beachten Sie, dass bei einer Ablehnung womöglich nicht mehr alle Funktionalitäten der Seite zur Verfügung stehen.